Weather in Putilovo

Russia / Saint-Petersburg and Leningrad Oblast     59°52′03″N   31°26′47″E
temp.,
°C
wind,
m/s
gust,
m/s
humid.,
%
clouds,
%
prec.,
mm/h
press.,
hPa
HPBL,
m
17 september, fri
fri1700:00+2ene11908 0.0 102210
03:00+2ene119316 0.0 102210
06:00+2ene229444 0.0 102321
09:00+6ene24775 0.0 1023269
12:00+10ne345344 0.0 10231402
15:00+11ne344831 0.0 10231498
18:00+8ne36665 0.0 1024352
21:00+5nne1284100 0.0 102531
18 september, sat
sat1800:00+7e1178100 0.0 102515
03:00+6ene1279100 0.0 102643
06:00+4e24917 0.0 102771
09:00+7e366790 0.0 1027263
12:00+10e3550100 0.0 10271602
15:00+11e354772 0.0 10271663
18:00+9ene386199 0.0 1026469
21:00+7ene397359 0.0 1027456
19 september, sun
sun1900:00+3ene39877 0.0 1028244
03:00+1ene399026 0.0 1028218
06:00+1ene3989100 0.0 1028242
09:00+4ene4972100 0.0 1028385
12:00+8e475553 0.0 1028944
15:00+10ene464954 0.0 10271316
18:00+8ene485944 0.0 1027727
21:00+5ene4127028 0.0 1028455
20 september, mon
mon2000:00+3ene4127881 0.0 1028389
03:00+2ene41286100 0.0 1028410
06:00+1ene41186100 0.0 1029505
09:00+4ene51270100 0.0 1029861
12:00+7ene585499 0.0 10291302
15:00+8ene584964 0.0 10271356
18:00+7ene485861 0.0 10271130
21:00+3ene41170100 0.0 1027700
21 september, tue
tue2100:00+2ene4117597 0.0 1027482
03:00+1ne4118380 0.0 1026381
06:000ne3118865 0.0 1025388
09:00+2ene4107491 0.0 1023441
12:00+7ne4656100 0.0 1022771
15:00+9ene4652100 0.0 10211047
18:00+8ne3761100 0.0 1021441
21:00+6ne3865100 0.0 1021333